Torna al catalogo

FENGYUN 1C DEB

LostPO
NORAD 38786·DEBRIS·🇨🇳 China

Lanciato May 10, 1999 da Taiyuan Satellite Launch Center

Loading…

Prossimi Passaggi (prossime 24 ore)

TLE

ObsoletoSource: Space-Track

Epoca: Oct 30, 2024, 14:16 UTC

1 38786U 99025EUA 24304.59486532  .00041015  00000-0  22605-1 0  9999
2 38786  99.5002 258.4245 0203765 207.3576 151.6740 14.01354152682480

Traccia FENGYUN 1C DEB in tempo reale con AllMySat

Download on the App Store